Year,Month,Day,Hour,Minute,Value (Times are PST for temperature in C)
2013,12,07,00,00,-5.40
2013,12,07,00,01,-5.40
2013,12,07,00,02,-5.40
2013,12,07,00,03,-5.50
2013,12,07,00,04,-5.50
2013,12,07,00,05,-5.50
2013,12,07,00,06,-5.50
2013,12,07,00,07,-5.50
2013,12,07,00,08,-5.60
2013,12,07,00,09,-5.60
2013,12,07,00,10,-5.60
2013,12,07,00,11,-5.60
2013,12,07,00,12,-5.60
2013,12,07,00,13,-5.60
2013,12,07,00,14,-5.60
2013,12,07,00,15,-5.60
2013,12,07,00,16,-5.60
2013,12,07,00,17,-5.60
2013,12,07,00,18,-5.60
2013,12,07,00,19,-5.60
2013,12,07,00,20,-5.60
2013,12,07,00,21,-5.60
2013,12,07,00,22,-5.70
2013,12,07,00,23,-5.70
2013,12,07,00,24,-5.70
2013,12,07,00,25,-5.70
2013,12,07,00,26,-5.70
2013,12,07,00,27,-5.70
2013,12,07,00,28,-5.70
2013,12,07,00,29,-5.70
2013,12,07,00,30,-5.70
2013,12,07,00,31,-5.70
2013,12,07,00,32,-5.70
2013,12,07,00,33,-5.70
2013,12,07,00,34,-5.70
2013,12,07,00,35,-5.70
2013,12,07,00,36,-5.70
2013,12,07,00,37,-5.70
2013,12,07,00,38,-5.70
2013,12,07,00,39,-5.70
2013,12,07,00,40,-5.70
2013,12,07,00,41,-5.70
2013,12,07,00,42,-5.70
2013,12,07,00,43,-5.70
2013,12,07,00,44,-5.70
2013,12,07,00,45,-5.70
2013,12,07,00,46,-5.70
2013,12,07,00,47,-5.70
2013,12,07,00,48,-5.70
2013,12,07,00,49,-5.70
2013,12,07,00,50,-5.70
2013,12,07,00,51,-5.70
2013,12,07,00,52,-5.70
2013,12,07,00,53,-5.70
2013,12,07,00,54,-5.70
2013,12,07,00,55,-5.70
2013,12,07,00,56,-5.70
2013,12,07,00,57,-5.70
2013,12,07,00,58,-5.70
2013,12,07,00,59,-5.70
2013,12,07,01,00,-5.70
2013,12,07,01,01,-5.70
2013,12,07,01,02,-5.70
2013,12,07,01,03,-5.70
2013,12,07,01,04,-5.70
2013,12,07,01,05,-5.70
2013,12,07,01,06,-5.60
2013,12,07,01,07,-5.60
2013,12,07,01,08,-5.60
2013,12,07,01,09,-5.60
2013,12,07,01,10,-5.60
2013,12,07,01,11,-5.60
2013,12,07,01,12,-5.60
2013,12,07,01,13,-5.60
2013,12,07,01,14,-5.50
2013,12,07,01,15,-5.50
2013,12,07,01,16,-5.50
2013,12,07,01,17,-5.50
2013,12,07,01,18,-5.50
2013,12,07,01,19,-5.40
2013,12,07,01,20,-5.40
2013,12,07,01,21,-5.40
2013,12,07,01,22,-5.40
2013,12,07,01,23,-5.30
2013,12,07,16,05,-3.80
2013,12,07,16,06,-3.80
2013,12,07,16,07,-3.80
2013,12,07,16,08,-3.80
2013,12,07,16,09,-3.80
2013,12,07,16,10,-3.80
2013,12,07,16,11,-3.80
2013,12,07,16,12,-3.80
2013,12,07,16,13,-3.90
2013,12,07,16,14,-3.90
2013,12,07,16,15,-3.90
2013,12,07,16,16,-3.90
2013,12,07,16,17,-4.00
2013,12,07,16,18,-4.00
2013,12,07,16,19,-4.00
2013,12,07,16,20,-4.10
2013,12,07,16,21,-4.10
2013,12,07,16,22,-4.10
2013,12,07,16,23,-4.10
2013,12,07,16,24,-4.20
2013,12,07,16,25,-4.20
2013,12,07,16,26,-4.20
2013,12,07,16,27,-4.20
2013,12,07,16,28,-4.20
2013,12,07,16,29,-4.20
2013,12,07,16,30,-4.20
2013,12,07,16,31,-4.20
2013,12,07,16,32,-4.30
2013,12,07,16,33,-4.30
2013,12,07,16,34,-4.30
2013,12,07,16,35,-4.30
2013,12,07,16,36,-4.30
2013,12,07,16,39,-4.40
2013,12,07,16,40,-4.40
2013,12,07,16,41,-4.40
2013,12,07,16,42,-4.50
2013,12,07,16,43,-4.50
2013,12,07,16,44,-4.50
2013,12,07,16,45,-4.50
2013,12,07,16,46,-4.50
2013,12,07,16,47,-4.50
2013,12,07,16,48,-4.60
2013,12,07,16,49,-4.60
2013,12,07,16,50,-4.60
2013,12,07,16,51,-4.60
2013,12,07,16,52,-4.60
2013,12,07,16,53,-4.70
2013,12,07,16,54,-4.70
2013,12,07,16,55,-4.70
2013,12,07,16,56,-4.70
2013,12,07,16,57,-4.70
2013,12,07,16,58,-4.80
2013,12,07,16,59,-4.80
2013,12,07,17,00,-4.80
2013,12,07,17,01,-4.80
2013,12,07,17,02,-4.90
2013,12,07,17,03,-4.90
2013,12,07,17,04,-4.90
2013,12,07,17,05,-4.90
2013,12,07,17,06,-5.00
2013,12,07,17,07,-5.00
2013,12,07,17,08,-5.00
2013,12,07,17,09,-5.00
2013,12,07,17,10,-5.00
2013,12,07,17,11,-5.10
2013,12,07,17,12,-5.10
2013,12,07,17,13,-5.10
2013,12,07,17,14,-5.10
2013,12,07,17,15,-5.10
2013,12,07,17,16,-5.10
2013,12,07,17,17,-5.10
2013,12,07,17,18,-5.20
2013,12,07,17,19,-5.20
2013,12,07,17,20,-5.10
2013,12,07,17,21,-5.10
2013,12,07,17,22,-5.10
2013,12,07,17,23,-5.10
2013,12,07,17,24,-5.10
2013,12,07,17,25,-5.10
2013,12,07,17,26,-5.20
2013,12,07,17,27,-5.20
2013,12,07,17,28,-5.20
2013,12,07,17,29,-5.20
2013,12,07,17,30,-5.20
2013,12,07,17,31,-5.20
2013,12,07,17,32,-5.20
2013,12,07,17,33,-5.30
2013,12,07,17,34,-5.30
2013,12,07,17,35,-5.30
2013,12,07,17,36,-5.30
2013,12,07,17,37,-5.30
2013,12,07,17,38,-5.30
2013,12,07,17,39,-5.30
2013,12,07,17,40,-5.30
2013,12,07,17,41,-5.30
2013,12,07,17,42,-5.30
2013,12,07,17,43,-5.30
2013,12,07,17,44,-5.40
2013,12,07,17,45,-5.40
2013,12,07,17,46,-5.40
2013,12,07,17,47,-5.40
2013,12,07,17,48,-5.50
2013,12,07,17,49,-5.50
2013,12,07,17,50,-5.50
2013,12,07,17,51,-5.50
2013,12,07,17,52,-5.60
2013,12,07,17,53,-5.60
2013,12,07,17,54,-5.60
2013,12,07,17,55,-5.70
2013,12,07,17,56,-5.70
2013,12,07,17,57,-5.70
2013,12,07,17,58,-5.70
2013,12,07,17,59,-5.70
2013,12,07,18,00,-5.70
2013,12,07,18,01,-5.70
2013,12,07,18,02,-5.70
2013,12,07,18,03,-5.70
2013,12,07,18,04,-5.80
2013,12,07,18,05,-5.80
2013,12,07,18,06,-5.80
2013,12,07,18,07,-5.70
2013,12,07,18,08,-5.70
2013,12,07,18,09,-5.70
2013,12,07,18,10,-5.70
2013,12,07,18,11,-5.70
2013,12,07,18,12,-5.80
2013,12,07,18,13,-5.80
2013,12,07,18,14,-5.80
2013,12,07,18,15,-5.80
2013,12,07,18,16,-5.80
2013,12,07,18,17,-5.80
2013,12,07,18,18,-5.80
2013,12,07,18,19,-5.90
2013,12,07,18,20,-5.90
2013,12,07,18,21,-5.90
2013,12,07,18,22,-5.90
2013,12,07,18,23,-5.90
2013,12,07,18,24,-5.90
2013,12,07,18,25,-5.90
2013,12,07,18,26,-5.90
2013,12,07,18,27,-5.90
2013,12,07,18,28,-5.90
2013,12,07,18,29,-5.90
2013,12,07,18,30,-5.90
2013,12,07,18,31,-5.90
2013,12,07,18,32,-5.90
2013,12,07,18,33,-5.90
2013,12,07,18,34,-5.90
2013,12,07,18,35,-5.90
2013,12,07,18,36,-6.00
2013,12,07,18,37,-6.00
2013,12,07,18,38,-6.00
2013,12,07,18,39,-6.10
2013,12,07,18,40,-6.10
2013,12,07,18,41,-6.10
2013,12,07,18,42,-6.10
2013,12,07,18,43,-6.10
2013,12,07,18,44,-6.10
2013,12,07,18,45,-6.20
2013,12,07,18,46,-6.20
2013,12,07,18,47,-6.20
2013,12,07,18,48,-6.20
2013,12,07,18,49,-6.30
2013,12,07,18,50,-6.30
2013,12,07,18,51,-6.30
2013,12,07,18,52,-6.40
2013,12,07,18,53,-6.40
2013,12,07,18,54,-6.40
2013,12,07,18,55,-6.40
2013,12,07,18,56,-6.50
2013,12,07,18,57,-6.50
2013,12,07,18,58,-6.50
2013,12,07,18,59,-6.60
2013,12,07,19,00,-6.60
2013,12,07,19,01,-6.60
2013,12,07,19,02,-6.60
2013,12,07,19,03,-6.70
2013,12,07,19,04,-6.70
2013,12,07,19,05,-6.70
2013,12,07,19,06,-6.70
2013,12,07,19,07,-6.70
2013,12,07,19,08,-6.70
2013,12,07,19,09,-6.70
2013,12,07,19,10,-6.70
2013,12,07,19,11,-6.70
2013,12,07,19,12,-6.80
2013,12,07,19,13,-6.80
2013,12,07,19,14,-6.80
2013,12,07,19,15,-6.80
2013,12,07,19,16,-6.90
2013,12,07,19,17,-6.90
2013,12,07,19,18,-6.90
2013,12,07,19,19,-6.90
2013,12,07,19,20,-6.90
2013,12,07,19,21,-7.00
2013,12,07,19,22,-7.00
2013,12,07,19,23,-7.00
2013,12,07,19,24,-7.00
2013,12,07,19,25,-7.10
2013,12,07,19,26,-7.10
2013,12,07,19,27,-7.10
2013,12,07,19,28,-7.10
2013,12,07,19,29,-7.10
2013,12,07,19,30,-7.10
2013,12,07,19,31,-7.10
2013,12,07,19,32,-7.10
2013,12,07,19,33,-7.20
2013,12,07,19,34,-7.20
2013,12,07,19,35,-7.20
2013,12,07,19,36,-7.20
2013,12,07,19,37,-7.20
2013,12,07,19,38,-7.20
2013,12,07,19,39,-7.20
2013,12,07,19,40,-7.20
2013,12,07,19,41,-7.20
2013,12,07,19,42,-7.30
2013,12,07,19,43,-7.30
2013,12,07,19,44,-7.30
2013,12,07,19,45,-7.30
2013,12,07,19,46,-7.30
2013,12,07,19,47,-7.30
2013,12,07,19,48,-7.30
2013,12,07,19,49,-7.30
2013,12,07,19,50,-7.30
2013,12,07,19,51,-7.30
2013,12,07,19,52,-7.30
2013,12,07,19,53,-7.20
2013,12,07,19,54,-7.30
2013,12,07,19,55,-7.30
2013,12,07,19,56,-7.30
2013,12,07,19,57,-7.30
2013,12,07,19,58,-7.30
2013,12,07,19,59,-7.30
2013,12,07,20,00,-7.30
2013,12,07,20,01,-7.30
2013,12,07,20,02,-7.30
2013,12,07,20,03,-7.40
2013,12,07,20,04,-7.40
2013,12,07,20,05,-7.40
2013,12,07,20,06,-7.40
2013,12,07,20,07,-7.40
2013,12,07,20,08,-7.40
2013,12,07,20,09,-7.50
2013,12,07,20,10,-7.50
2013,12,07,20,11,-7.50
2013,12,07,20,12,-7.50
2013,12,07,20,13,-7.60
2013,12,07,20,14,-7.60
2013,12,07,20,15,-7.60
2013,12,07,20,16,-7.60
2013,12,07,20,17,-7.60
2013,12,07,20,18,-7.60
2013,12,07,20,19,-7.60
2013,12,07,20,20,-7.60
2013,12,07,20,21,-7.60
2013,12,07,20,22,-7.60
2013,12,07,20,23,-7.60
2013,12,07,20,24,-7.60
2013,12,07,20,25,-7.60
2013,12,07,20,26,-7.60
2013,12,07,20,27,-7.60
2013,12,07,20,28,-7.60
2013,12,07,20,29,-7.60
2013,12,07,20,30,-7.60
2013,12,07,20,31,-7.60
2013,12,07,20,32,-7.60
2013,12,07,20,33,-7.60
2013,12,07,20,34,-7.60
2013,12,07,20,35,-7.60
2013,12,07,20,36,-7.60
2013,12,07,20,37,-7.60
2013,12,07,20,38,-7.60
2013,12,07,20,39,-7.60
2013,12,07,20,40,-7.60
2013,12,07,20,41,-7.70
2013,12,07,20,42,-7.70
2013,12,07,20,43,-7.70
2013,12,07,20,44,-7.70
2013,12,07,20,45,-7.70
2013,12,07,20,46,-7.70
2013,12,07,20,47,-7.70
2013,12,07,20,48,-7.80
2013,12,07,20,49,-7.80
2013,12,07,20,50,-7.80
2013,12,07,20,51,-7.80
2013,12,07,20,52,-7.80
2013,12,07,20,53,-7.80
2013,12,07,20,54,-7.80
2013,12,07,20,55,-7.80
2013,12,07,20,56,-7.80
2013,12,07,20,57,-7.80
2013,12,07,20,58,-7.80
2013,12,07,20,59,-7.80
2013,12,07,21,00,-7.80
2013,12,07,21,01,-7.80
2013,12,07,21,02,-7.80
2013,12,07,21,03,-7.90
2013,12,07,21,04,-7.90
2013,12,07,21,05,-7.90
2013,12,07,21,06,-7.90
2013,12,07,21,07,-7.90
2013,12,07,21,08,-7.90
2013,12,07,21,09,-7.90
2013,12,07,21,10,-8.00
2013,12,07,21,11,-8.00
2013,12,07,21,12,-8.00
2013,12,07,21,13,-8.00
2013,12,07,21,14,-8.00
2013,12,07,21,15,-8.10
2013,12,07,21,16,-8.10
2013,12,07,21,17,-8.10
2013,12,07,21,18,-8.10
2013,12,07,21,19,-8.10
2013,12,07,21,20,-8.10
2013,12,07,21,21,-8.20
2013,12,07,21,22,-8.20
2013,12,07,21,23,-8.20
2013,12,07,21,24,-8.20
2013,12,07,21,25,-8.20
2013,12,07,21,26,-8.20
2013,12,07,21,27,-8.20
2013,12,07,21,28,-8.20
2013,12,07,21,29,-8.30
2013,12,07,21,30,-8.30
2013,12,07,21,31,-8.30
2013,12,07,21,32,-8.30
2013,12,07,21,33,-8.30
2013,12,07,21,34,-8.30
2013,12,07,21,35,-8.30
2013,12,07,21,36,-8.30
2013,12,07,21,37,-8.40
2013,12,07,21,38,-8.40
2013,12,07,21,39,-8.40
2013,12,07,21,40,-8.40
2013,12,07,21,41,-8.40
2013,12,07,21,42,-8.40
2013,12,07,21,43,-8.40
2013,12,07,21,44,-8.40
2013,12,07,21,45,-8.40
2013,12,07,21,46,-8.40
2013,12,07,21,47,-8.40
2013,12,07,21,48,-8.40
2013,12,07,21,49,-8.40
2013,12,07,21,50,-8.40
2013,12,07,21,51,-8.30
2013,12,07,21,52,-8.30
2013,12,07,21,53,-8.30
2013,12,07,21,54,-8.30
2013,12,07,21,55,-8.30
2013,12,07,21,56,-8.40
2013,12,07,21,57,-8.40
2013,12,07,21,58,-8.40
2013,12,07,21,59,-8.40
2013,12,07,22,00,-8.40
2013,12,07,22,01,-8.40
2013,12,07,22,02,-8.40
2013,12,07,22,03,-8.40
2013,12,07,22,04,-8.40
2013,12,07,22,05,-8.50
2013,12,07,22,06,-8.50
2013,12,07,22,07,-8.50
2013,12,07,22,08,-8.50
2013,12,07,22,09,-8.50
2013,12,07,22,10,-8.60
2013,12,07,22,11,-8.60
2013,12,07,22,12,-8.60
2013,12,07,22,13,-8.60
2013,12,07,22,14,-8.60
2013,12,07,22,15,-8.60
2013,12,07,22,16,-8.70
2013,12,07,22,17,-8.70
2013,12,07,22,18,-8.70
2013,12,07,22,19,-8.70
2013,12,07,22,20,-8.70
2013,12,07,22,21,-8.70
2013,12,07,22,22,-8.70
2013,12,07,22,23,-8.70
2013,12,07,22,24,-8.70
2013,12,07,22,25,-8.70
2013,12,07,22,26,-8.70
2013,12,07,22,27,-8.70
2013,12,07,22,28,-8.70
2013,12,07,22,29,-8.70
2013,12,07,22,30,-8.70
2013,12,07,22,31,-8.70
2013,12,07,22,32,-8.70
2013,12,07,22,33,-8.70
2013,12,07,22,34,-8.70
2013,12,07,22,35,-8.70
2013,12,07,22,36,-8.70
2013,12,07,22,37,-8.70
2013,12,07,22,38,-8.70
2013,12,07,22,39,-8.70
2013,12,07,22,40,-8.70
2013,12,07,22,41,-8.70
2013,12,07,22,42,-8.70
2013,12,07,22,43,-8.70
2013,12,07,22,44,-8.70
2013,12,07,22,45,-8.70
2013,12,07,22,46,-8.70
2013,12,07,22,47,-8.70
2013,12,07,22,48,-8.70
2013,12,07,22,49,-8.70
2013,12,07,22,50,-8.70
2013,12,07,22,51,-8.70
2013,12,07,22,52,-8.70
2013,12,07,22,53,-8.70
2013,12,07,22,54,-8.70
2013,12,07,22,55,-8.70
2013,12,07,22,56,-8.70
2013,12,07,22,57,-8.70
2013,12,07,22,58,-8.70
2013,12,07,22,59,-8.70
2013,12,07,23,00,-8.70
2013,12,07,23,01,-8.70
2013,12,07,23,02,-8.70
2013,12,07,23,03,-8.70
2013,12,07,23,04,-8.70
2013,12,07,23,05,-8.70
2013,12,07,23,06,-8.80
2013,12,07,23,07,-8.80
2013,12,07,23,08,-8.80
2013,12,07,23,09,-8.80
2013,12,07,23,10,-8.80
2013,12,07,23,11,-8.80
2013,12,07,23,12,-8.80
2013,12,07,23,13,-8.80
2013,12,07,23,14,-8.80
2013,12,07,23,15,-8.80
2013,12,07,23,16,-8.80
2013,12,07,23,17,-8.80
2013,12,07,23,18,-8.80
2013,12,07,23,19,-8.80
2013,12,07,23,20,-8.80
2013,12,07,23,21,-8.80
2013,12,07,23,22,-8.80
2013,12,07,23,23,-8.80
2013,12,07,23,24,-8.80
2013,12,07,23,25,-8.80
2013,12,07,23,26,-8.80
2013,12,07,23,27,-8.80
2013,12,07,23,28,-8.80
2013,12,07,23,29,-8.80
2013,12,07,23,30,-8.80
2013,12,07,23,31,-8.90
2013,12,07,23,32,-8.90
2013,12,07,23,33,-8.90
2013,12,07,23,34,-8.90
2013,12,07,23,35,-8.90
2013,12,07,23,36,-8.90
2013,12,07,23,37,-8.90
2013,12,07,23,38,-8.90
2013,12,07,23,39,-8.90
2013,12,07,23,40,-8.90
2013,12,07,23,41,-8.90
2013,12,07,23,42,-8.90
2013,12,07,23,43,-8.90
2013,12,07,23,44,-8.90
2013,12,07,23,45,-8.90
2013,12,07,23,46,-8.90
2013,12,07,23,47,-8.90
2013,12,07,23,48,-9.00
2013,12,07,23,49,-9.00
2013,12,07,23,50,-9.00
2013,12,07,23,51,-9.00
2013,12,07,23,52,-9.00
2013,12,07,23,53,-9.00
2013,12,07,23,54,-9.00
2013,12,07,23,55,-9.00
2013,12,07,23,56,-9.00
2013,12,07,23,57,-9.00
2013,12,07,23,58,-9.00
2013,12,07,23,59,-9.00
